Regional Weather Roundup
Issued by NWS

Home | Current Version | Previous Version | Graphics & Text | Print | Product List | Glossary On
Versions: 1 2 3 4 5 6 7 8 9 10 11 12 13 14 15 16 17 18 19 20 21 22 23 24 25 26 27 28 29 30 31 32 33 34 35 36 37 38 39 40 41 42 43 44 45 46 47 48 49 50
000
ASUS45 KABQ 240401
RWRNM
WEATHER ROUNDUP FOR NEW MEXICO
NATIONAL WEATHER SERVICE ALBUQUERQUE NM
1000 PM MDT THU OCT 23 2014

NOTE: "FAIR" MEANS FEW OR NO CLOUDS BELOW 12,000 FEET AGL WITH NO
       SIGNIFICANT WEATHER OR OBSTRUCTIONS TO VISION.

      THIS PRODUCT IS RELEASED AS TWO VERSIONS.  ONE VERSION NEAR
      THE TOP OF THE HOUR CONTAINING PRELIMINARY DATA FROM ALBUQUERQUE
      AND OTHER STATIONS.  A FINAL VERSION WITH ADDITIONAL DATA IS
      ISSUED ABOUT 10 MINUTES AFTER THE HOUR.

NMZ501-503-504-510>518-240500-
NORTHWEST PLATEAU/NORTHCENTRAL MOUNTAINS

CITY           SKY/WX    TMP DP  RH WIND       PRES   REMARKS
FARMINGTON     CLEAR     49  31  49 NE6       30.26R
LOS ALAMOS     CLEAR     59  28  30 W7        30.35S
SANTA FE       CLEAR     51  32  48 N9        30.29R
TAOS           CLEAR     45  27  49 E10       30.35R
ANGEL FIRE     FAIR      38  30  71 CALM      30.42R

$$
NMZ402-403-502-505>509-240500-
WESTCENTRAL MOUNTAINS/SOUTHWEST MOUNTAINS

CITY           SKY/WX    TMP DP  RH WIND       PRES   REMARKS
GALLUP         PTCLDY    47  35  63 CALM      30.33R
SILVER CITY    CLEAR     55  46  71 N9        30.28R

$$
NMZ407-409-411-412-240500-
SOUTHERN DESERTS

CITY           SKY/WX    TMP DP  RH WIND       PRES   REMARKS
LORDSBURG      FAIR      55  43  62 MISG      30.19R
DEMING         CLEAR     59  50  72 NW3       30.20R
LAS CRUCES     CLEAR     62  52  68 W5        30.21S
HOLLOMAN AFB   CLEAR     60  49  67 E6        30.17S
T OR C         CLEAR     62  48  60 SW3       30.21R

$$
NMZ519>523-240500-
CENTRAL VALLEYS/CENTRAL HIGHLANDS

CITY           SKY/WX    TMP DP  RH WIND       PRES   REMARKS
ALBUQUERQUE    PTCLDY    62  37  39 E6        30.26R
DOUBLE EAGLE   CLEAR     54  32  43 SW8       30.29R
MORIARTY ARPT  FAIR      46  35  67 CALM      30.31R
CLINES CORNERS CLEAR     53  32  44 W10       30.31R
BELEN          NOT AVBL
SOCORRO        FAIR      57  45  62 CALM      30.22R

$$
NMZ524>526-539-540-240500-
SOUTHCENTRAL MOUNTAINS

CITY           SKY/WX    TMP DP  RH WIND       PRES   REMARKS
RUIDOSO        CLEAR     57  37  47 W3        30.35R

$$
NMZ527>531-240500-
NORTHEAST HIGHLANDS/NORTHEAST PLAINS

CITY           SKY/WX    TMP DP  RH WIND       PRES   REMARKS
LAS VEGAS      CLEAR     51  30  44 N7        30.30R
RATON          CLEAR     51  35  54 N8        30.27R
CLAYTON        CLEAR     56  46  69 SW5       30.19R

$$
NMZ532>537-240500-
EASTCENTRAL PLAINS

CITY           SKY/WX    TMP DP  RH WIND       PRES   REMARKS
TUCUMCARI      CLEAR     64  48  56 S12       30.13R
CANNON AFB     CLEAR     64  49  58 W10       30.17R
CLOVIS AIRPORT CLEAR     61  46  59 W10       30.19R

$$
NMZ028-029-538-240500-
SOUTHEAST PLAINS

CITY           SKY/WX    TMP DP  RH WIND       PRES   REMARKS
ROSWELL        CLEAR     61  57  87 CALM      30.15R
CARLSBAD       CLEAR     63  56  78 SW8       30.13R
HOBBS          CLEAR     61  54  77 S6        30.17S


$$



USA.gov is the U.S. government's official web portal to all federal, state and local government web resources and services.